sat.trackr.live / text

‹ back to catalog

KUIPER-00414

NORAD 68929 · 2026-098L

PAYLOAD ACTIVE UNKNOWN

§ Identity

Operator
Country
US
Launch date
2026-04-30
Launch site
FRGUI
Launch vehicle
Mass (kg)
RCS (m²)

External: N2YO · Heavens-Above · Gunter

§ Orbital elements

Epoch: 2026-09-19T19:12:03.220992Z

Period
97.30 min
Inclination
51.8990°
Eccentricity
0.0001235
Mean motion
14.79929355 rev/d
Perigee alt
628.7 km
Apogee alt
630.4 km
Semi-major
7,007.7 km
B*
1.1226e-4
RAAN
12.3571°
Arg perigee
138.8572°
Mean anomaly
221.2484°
Rev number
2,131

§ Raw data

KUIPER-004141 68929U 26098L   26262.80003728  .00000635  00000+0  11226-3 0  99932 68929  51.8990  12.3571 0001235 138.8572 221.2484 14.79929355 21316

JSON: /api/v1/satellites/68929 · /tle

For live sub-satellite position, see the globe view (requires WebGL).

§ Visibility from observer

Set your observer location to see the next 7 days of passes ≥ 10°. The values pass through the URL so the page stays shareable.

No JS? Fill the form by hand. The geolocation button needs JavaScript.